Location: Waco, TX
(31.5480°N, 97.1670°W)
Time: 00:53:58
(UTC-06:00)

ISS - Pass Details

Date: 16 January 2018
Orbit: 402 x 407 km, 51.6° (Epoch: 21 January)

Event Time Altitude Azimuth Distance (km) Brightness Sun altitude
Rises 23:27:59 0° 272° (W) 2,306 - -70.9°
Reaches altitude 10° 23:31:17 10° 308° (NW) 1,451 - -71.5°
Maximum altitude 23:32:24 11° 328° (NNW) 1,374 - -71.7°
Drops below altitude 10° 23:33:32 10° 349° (NNW) 1,454 - -71.9°
Sets 23:36:51 0° 25° (NNE) 2,317 - -72.4°
